OBJECT F, 56748

Orbit data source: Space-Track

You're viewing an Uncataloged Satellite

Recently launched and/or uncataloged satellites may have evolving metadata. Metadata may include but not limited to: Owner, Maufacturer, Bus, Motor, and Mission.

OBJECT F, 56748 is a South Korean satellite in SSO that was launched on Thu, 25 May 2023 UTC via an NURI launch vehicle from the Naro Space Center, South Korea (NSC). Unknown objects in Earth's orbit typically refer to objects detected orbiting the Earth but have not yet been identified or cataloged. These objects could be anything from previously untracked satellites, spent rocket stages, debris from satellite collisions, or even natural meteoroids temporarily captured by Earth's gravity.

Loading next visibility...
Identifier
56748, 2023-072F
Orbit
SSO
Country
Flag of KRKR / SKOR
Related business
None
Manufacturer
Unknown
Mission
Operational Commercial Imaging
Bus & Motor
Unknown
Mass
Unknown
Launch date (UTC)
2023-05-25 (3 years ago)
Launch vehicle
NURI
Launch site
Naro Space Center, South Korea (NSC)
Object type
Unknown
Shape & HBR
Box, 0.1 m
Radar Cross Section
0.035 m², Medium (>0.1 m² and < 1m²)

Expand to show TLE details & history
Last TLE update: 12 hours ago

TLE from 12 hours ago
0 OBJECT F
1 56748U 23072F   26171.49856324  .00007674  00000-0  25588-3 0  9997
2 56748  97.5112   9.5319 0005905  19.3680 340.7784 15.31357703170286
Epoch: 2026-06-20T11:57Z
TLE epoch observation values (Epoch: 2026-06-20T11:57:55.863Z)
Latitude
-0.00008°
Longitude
-78.66317°
Altitude
471.043 km
Speed
7.633 km/s
True Right ascension
00h 38m 07s
True Declination
0° 00' 00"
Sunlit
Object was in daylight at epoch
Visualization orbit readout
Latitude
Unknown
Longitude
Unknown
Altitude
Unknown
Speed
Unknown
Apparent Right ascension
Unknown
Apparent Declination
Unknown
Sunlit
N/A
Visualization observer readout
Local Sidereal Time
11:00:01
Azimuth
Unknown
Elevation
Unknown
Doppler factor
Unknown
Orbital elements
Apogee altitude
472.759 km
Perigee altitude
464.673 km
Semi-major axis
6,846.853 km
Eccentricity
0.00059
Inclination
97.5112°
RAAN
9.5319°
Arg. of periapsis
19.368°
True anomaly
340.75611°
Mean anomaly
340.7784°
Eccentric anomaly
340.76726°
Mean motion
3.83095 °/min
Orbital period
93.97 mins
BSTAR
0.00025588
Loading maneuver chart data...
Computing Atmospheric mass density...
Loading historical data...
Loading historical data...
Loading historical data...
Loading historical data...
Loading historical data...
Loading historical data...
Loading historical data...

Documentation

Showing up to 5 results
|